When you browse on this site, cookies collect data to enhance your experience and personalize the content and advertising you see.
Visit our Privacy Policy to learn more. By continuing to use the site, you agree to this use of cookies and data.
  • In Netherlands
  • List of Countries
  • For 7 days
  • Water Temperature
  • Satellite Maps
  • Weather Map
  • Weather Widgets
  • user-avatar
    Login

    Hourly Weather Pavlodolskaya

    Today, 24 April, Wednesday

    Time Temperature Precipitation Wind Pressure Humidity
    00:00 +7°C° 0 mm 2 mps 758 mmHg 56%
    01:00 +7°C° 0 mm 2 mps 758 mmHg 57%
    02:00 +6°C° 0 mm 2 mps 758 mmHg 59%
    03:00 +7°C° 0 mm 3 mps 757 mmHg 63%
    04:00 +7°C° 0 mm 3 mps 757 mmHg 63%
    05:00 +7°C° 0 mm 3 mps 757 mmHg 63%
    06:00 +7°C° 0 mm 3 mps 758 mmHg 64%
    07:00 +9°C° 0 mm 3 mps 757 mmHg 58%
    08:00 +12°C° 0 mm 3 mps 757 mmHg 53%
    09:00 +14°C° 0 mm 3 mps 757 mmHg 48%
    10:00 +16°C° 0 mm 3 mps 757 mmHg 44%
    11:00 +18°C° 0 mm 3 mps 756 mmHg 41%
    12:00 +19°C° 0 mm 3 mps 756 mmHg 37%
    13:00 +19°C° 0 mm 3 mps 756 mmHg 38%
    14:00 +19°C° 0 mm 3 mps 756 mmHg 39%
    15:00 +19°C° 0 mm 3 mps 755 mmHg 40%
    16:00 +18°C° 0 mm 3 mps 755 mmHg 45%
    17:00 +17°C° 0 mm 2 mps 756 mmHg 50%
    18:00 +17°C° 0 mm 2 mps 756 mmHg 55%
    19:00 +15°C° 0.1 mm 2 mps 756 mmHg 58%
    20:00 +13°C° 0.1 mm 3 mps 756 mmHg 62%
    21:00 +11°C° 0.1 mm 3 mps 757 mmHg 65%
    22:00 +11°C° 0 mm 3 mps 757 mmHg 67%
    23:00 +10°C° 0 mm 3 mps 757 mmHg 69%

    Tomorrow, 25 April, Thursday

    Time Temperature Precipitation Wind Pressure Humidity
    00:00 +10°C° 0 mm 3 mps 757 mmHg 71%
    01:00 +10°C° 0.2 mm 3 mps 757 mmHg 72%
    02:00 +10°C° 0.2 mm 3 mps 757 mmHg 73%
    03:00 +10°C° 0.2 mm 3 mps 757 mmHg 74%
    04:00 +10°C° 0.2 mm 3 mps 757 mmHg 76%
    05:00 +9°C° 0.2 mm 3 mps 757 mmHg 78%
    06:00 +9°C° 0.2 mm 3 mps 757 mmHg 79%
    07:00 +11°C° 0.1 mm 3 mps 757 mmHg 75%
    08:00 +12°C° 0.1 mm 3 mps 757 mmHg 70%
    09:00 +14°C° 0.1 mm 3 mps 757 mmHg 66%
    10:00 +16°C° 0.1 mm 2 mps 757 mmHg 60%
    11:00 +19°C° 0.1 mm 1 mps 756 mmHg 55%
    12:00 +20°C° 0.1 mm 1 mps 756 mmHg 49%
    13:00 +20°C° 0.1 mm 1 mps 756 mmHg 48%
    14:00 +20°C° 0.1 mm 1 mps 756 mmHg 47%
    15:00 +21°C° 0.1 mm 1 mps 756 mmHg 46%
    16:00 +20°C° 0.2 mm 1 mps 756 mmHg 50%
    17:00 +19°C° 0.2 mm 1 mps 756 mmHg 55%
    18:00 +19°C° 0.2 mm 1 mps 756 mmHg 59%
    19:00 +18°C° 0 mm 1 mps 756 mmHg 62%
    20:00 +15°C° 0 mm 1 mps 756 mmHg 64%
    21:00 +14°C° 0 mm 1 mps 757 mmHg 67%
    22:00 +13°C° 0 mm 1 mps 757 mmHg 68%
    23:00 +13°C° 0 mm 2 mps 757 mmHg 69%

    Day after tomorrow, 26 April, Friday

    Time Temperature Precipitation Wind Pressure Humidity
    00:00 +12°C° 0 mm 2 mps 756 mmHg 70%
    01:00 +12°C° 0 mm 2 mps 756 mmHg 69%
    02:00 +10°C° 0 mm 2 mps 756 mmHg 67%
    03:00 +11°C° 0 mm 1 mps 756 mmHg 66%
    04:00 +11°C° 0 mm 1 mps 756 mmHg 66%
    05:00 +11°C° 0 mm 1 mps 756 mmHg 65%
    06:00 +11°C° 0 mm 1 mps 756 mmHg 65%
    07:00 +13°C° 0 mm 1 mps 755 mmHg 59%
    08:00 +15°C° 0 mm 1 mps 755 mmHg 54%
    09:00 +17°C° 0 mm 0 mps 755 mmHg 48%
    10:00 +20°C° 0 mm 1 mps 754 mmHg 46%
    11:00 +20°C° 0 mm 2 mps 754 mmHg 44%
    12:00 +21°C° 0 mm 2 mps 754 mmHg 43%
    13:00 +21°C° 0 mm 3 mps 754 mmHg 42%
    14:00 +22°C° 0 mm 3 mps 753 mmHg 42%
    15:00 +22°C° 0 mm 3 mps 753 mmHg 41%
    16:00 +21°C° 0 mm 3 mps 753 mmHg 46%
    17:00 +20°C° 0 mm 3 mps 753 mmHg 50%
    18:00 +20°C° 0 mm 3 mps 753 mmHg 54%
    19:00 +18°C° 0 mm 3 mps 753 mmHg 57%
    20:00 +16°C° 0 mm 3 mps 754 mmHg 59%
    21:00 +14°C° 0 mm 3 mps 754 mmHg 61%
    22:00 +13°C° 0 mm 3 mps 754 mmHg 62%
    23:00 +14°C° 0 mm 2 mps 754 mmHg 63%

    27 April, Saturday

    Time Temperature Precipitation Wind Pressure Humidity
    00:00 +13°C° 0 mm 2 mps 754 mmHg 64%
    01:00 +13°C° 0 mm 2 mps 753 mmHg 65%
    02:00 +12°C° 0 mm 1 mps 753 mmHg 65%
    03:00 +12°C° 0 mm 1 mps 753 mmHg 65%
    04:00 +12°C° 0 mm 1 mps 753 mmHg 66%
    05:00 +12°C° 0 mm 1 mps 753 mmHg 68%
    06:00 +11°C° 0 mm 0 mps 753 mmHg 69%
    07:00 +14°C° 0 mm 1 mps 752 mmHg 63%
    08:00 +16°C° 0 mm 1 mps 752 mmHg 57%
    09:00 +18°C° 0 mm 2 mps 752 mmHg 51%
    10:00 +20°C° 0 mm 2 mps 751 mmHg 48%
    11:00 +21°C° 0 mm 3 mps 751 mmHg 45%
    12:00 +22°C° 0 mm 4 mps 751 mmHg 42%
    13:00 +23°C° 0 mm 4 mps 750 mmHg 42%
    14:00 +23°C° 0 mm 4 mps 750 mmHg 41%
    15:00 +23°C° 0 mm 4 mps 749 mmHg 40%
    16:00 +22°C° 0 mm 4 mps 749 mmHg 44%
    17:00 +21°C° 0 mm 4 mps 749 mmHg 48%
    18:00 +19°C° 0 mm 4 mps 749 mmHg 52%
    19:00 +17°C° 0.1 mm 4 mps 750 mmHg 54%
    20:00 +16°C° 0.1 mm 3 mps 750 mmHg 56%
    21:00 +13°C° 0.1 mm 3 mps 750 mmHg 58%
    22:00 +13°C° 0 mm 2 mps 750 mmHg 61%
    23:00 +12°C° 0 mm 2 mps 750 mmHg 65%

    28 April, Sunday

    Time Temperature Precipitation Wind Pressure Humidity
    00:00 +11°C° 0 mm 1 mps 750 mmHg 68%
    01:00 +11°C° 0 mm 1 mps 749 mmHg 71%
    02:00 +10°C° 0 mm 1 mps 749 mmHg 75%
    03:00 +9°C° 0 mm 0 mps 749 mmHg 78%
    04:00 +9°C° 0 mm 0 mps 749 mmHg 78%
    05:00 +10°C° 0 mm 1 mps 749 mmHg 79%
    06:00 +11°C° 0 mm 1 mps 749 mmHg 79%
    07:00 +13°C° 0 mm 1 mps 748 mmHg 70%
    08:00 +15°C° 0 mm 1 mps 748 mmHg 62%
    09:00 +18°C° 0 mm 1 mps 748 mmHg 53%
    10:00 +19°C° 0 mm 2 mps 747 mmHg 50%
    11:00 +21°C° 0 mm 2 mps 747 mmHg 46%
    12:00 +23°C° 0 mm 2 mps 747 mmHg 43%
    13:00 +24°C° 0 mm 2 mps 747 mmHg 42%
    14:00 +24°C° 0 mm 2 mps 746 mmHg 41%
    15:00 +25°C° 0 mm 2 mps 746 mmHg 41%
    16:00 +24°C° 0 mm 2 mps 746 mmHg 45%
    17:00 +23°C° 0 mm 2 mps 746 mmHg 48%
    18:00 +21°C° 0 mm 2 mps 746 mmHg 52%
    19:00 +19°C° 0.3 mm 2 mps 747 mmHg 55%
    20:00 +18°C° 0.3 mm 2 mps 747 mmHg 57%
    21:00 +16°C° 0.3 mm 2 mps 747 mmHg 60%
    22:00 +16°C° 0 mm 2 mps 747 mmHg 62%
    23:00 +15°C° 0 mm 2 mps 747 mmHg 65%

    29 April, Monday

    Time Temperature Precipitation Wind Pressure Humidity
    00:00 +15°C° 0 mm 2 mps 747 mmHg 68%
    01:00 +15°C° 0 mm 2 mps 747 mmHg 70%
    02:00 +14°C° 0 mm 2 mps 747 mmHg 71%
    03:00 +14°C° 0 mm 2 mps 747 mmHg 73%
    04:00 +14°C° 0 mm 2 mps 747 mmHg 73%
    05:00 +14°C° 0 mm 2 mps 747 mmHg 73%
    06:00 +14°C° 0 mm 2 mps 747 mmHg 73%
    07:00 +16°C° 0 mm 2 mps 747 mmHg 67%
    08:00 +19°C° 0 mm 2 mps 747 mmHg 61%
    09:00 +21°C° 0 mm 2 mps 747 mmHg 55%
    10:00 +23°C° 0 mm 2 mps 747 mmHg 51%
    11:00 +24°C° 0 mm 2 mps 747 mmHg 48%
    12:00 +25°C° 0 mm 2 mps 746 mmHg 44%
    13:00 +26°C° 0 mm 2 mps 746 mmHg 43%
    14:00 +26°C° 0 mm 2 mps 746 mmHg 41%
    15:00 +27°C° 0 mm 2 mps 745 mmHg 40%
    16:00 +25°C° 0 mm 2 mps 746 mmHg 44%
    17:00 +24°C° 0 mm 2 mps 746 mmHg 49%
    18:00 +23°C° 0 mm 2 mps 746 mmHg 54%
    19:00 +21°C° 0.2 mm 2 mps 746 mmHg 56%
    20:00 +21°C° 0.2 mm 1 mps 746 mmHg 58%
    21:00 +20°C° 0.2 mm 1 mps 747 mmHg 59%
    22:00 +18°C° 0.7 mm 2 mps 747 mmHg 68%
    23:00 +17°C° 0.7 mm 3 mps 747 mmHg 77%
    Show more